Omaha Offutt, NE

4:39 AM CDT on June 28, 2017 (GMT -0500)
Offutt Air Force Base

Weather History for KOFF - January, 2014

Change the Weather History Date:

Friday, January 3, 2014

  Actual Average Record
Temperature  
Mean Temperature 18 °F -  
Max Temperature 35 °F 33 °F 49 °F (2012)
Min Temperature 1 °F 14 °F 0 °F (1999)
Degree Days  
Heating Degree Days 47    
Moisture  
Dew Point 11 °F    
Average Humidity 78    
Maximum Humidity 98    
Minimum Humidity 67    
Precipitation  
Precipitation 0.00 in - - ()
Snow  
Snow 0.00 in - - ()
Snow Depth 1.00 in    
Sea Level Pressure  
Sea Level Pressure 30.03 in    
Wind  
Wind Speed 9 mph (SSE)    
Max Wind Speed 16 mph    
Max Gust Speed 25 mph    
Visibility 10 miles    
Events      
Averages and records for this station are not official NWS values.
T = Trace of Precipitation, MM = Missing Value Source: NWS Daily Summary

Daily Weather History Graph

Daily Weather History Graph

Search for Another Location

Airport or City:

Trip Planner

Search our weather history database for the weather conditions in past years. The results will help you decide how hot, cold, wet, or windy it might be!

Date:

Astronomy

Jan. 03, 2014 Rise Set
Actual Time 7:49 AM CST 5:07 PM CST
Civil Twilight 7:18 AM CST 5:38 PM CST
Nautical Twilight 6:43 AM CST 6:13 PM CST
Astronomical Twilight 6:10 AM CST 6:46 PM CST
Moon 9:14 AM CST (1/3) 8:19 PM CST (1/3)
Length of Visible Light 10h 20m
Length of Day
9h 18m
Waxing Crescent, 8% of the Moon is Illuminated
Jan 3
Waxing Crescent
Jan 7
First Quarter
Jan 15
Full
Jan 23
Last Quarter
Jan 30
New

Hourly Weather History & Observations

Time (CST) Temp. Windchill Dew Point Humidity Pressure Visibility Wind Dir Wind Speed Gust Speed Precip Events Conditions
12:58 AM 1.6 °F -9.7 °F -3.8 °F 78% 30.46 in 10.0 mi South 5.8 mph - N/A   Overcast
1:23 AM 3.2 °F -9.1 °F -2.2 °F 78% 30.35 in 10.0 mi SE 6.9 mph - N/A   Overcast
1:58 AM 3.7 °F -11.6 °F -2.2 °F 76% 30.42 in 10.0 mi SSE 10.4 mph - N/A   Overcast
2:58 AM 5.4 °F -10.4 °F -1.3 °F 74% 30.39 in 10.0 mi SSE 11.5 mph - N/A   Overcast
3:58 AM 5.9 °F -11.2 °F -1.5 °F 72% 30.35 in 10.0 mi South 13.8 mph - N/A   Overcast
4:48 AM 5.0 °F -10.0 °F -0.4 °F 78% 30.24 in 10.0 mi SSE 10.4 mph - N/A   Scattered Clouds
4:58 AM 5.0 °F -10.0 °F -1.3 °F 75% 30.33 in 10.0 mi SE 10.4 mph - N/A   Partly Cloudy
5:58 AM 5.5 °F -12.9 °F -1.7 °F 72% 30.26 in 10.0 mi SSE 16.1 mph - N/A   Partly Cloudy
6:58 AM 6.4 °F -11.7 °F -0.8 °F 72% 30.23 in 10.0 mi SSE 16.1 mph - N/A   Clear
7:58 AM 6.8 °F -9.3 °F 0.5 °F 75% 30.19 in 10.0 mi SSE 12.7 mph - N/A   Clear
8:58 AM 9.0 °F -5.9 °F 2.3 °F 74% 30.16 in 10.0 mi SSE 11.5 mph - N/A   Clear
9:58 AM 13.1 °F -1.4 °F 5.7 °F 72% 30.12 in 10.0 mi SSE 12.7 mph - N/A   Clear
10:58 AM 17.2 °F 6.0 °F 9.1 °F 71% 30.08 in 10.0 mi SSE 9.2 mph - N/A   Clear
11:58 AM 23.0 °F 9.6 °F 14.2 °F 69% 29.99 in 10.0 mi South 16.1 mph 21.9 mph N/A   Clear
12:58 PM 28.9 °F 17.3 °F 19.0 °F 67% 29.90 in 10.0 mi South 16.1 mph - N/A   Clear
3:58 PM 35.1 °F 26.4 °F 25.0 °F 67% 29.74 in 10.0 mi South 12.7 mph 25.3 mph N/A   Clear
4:58 PM 34.0 °F 25.5 °F 25.3 °F 71% 29.73 in 10.0 mi South 11.5 mph - N/A   Clear
5:58 PM 32.0 °F 23.6 °F 24.8 °F 75% 29.65 in 10.0 mi South 10.4 mph - N/A   Clear
6:58 PM 28.0 °F 24.2 °F 24.3 °F 86% 29.70 in 10.0 mi SE 3.5 mph - N/A   Clear
7:58 PM 29.3 °F 25.6 °F 25.5 °F 86% 29.68 in 10.0 mi SSE 3.5 mph - N/A   Clear
8:58 PM 28.8 °F 23.7 °F 25.2 °F 86% 29.66 in 10.0 mi SSE 4.6 mph - N/A   Clear
9:58 PM 26.8 °F 21.4 °F 24.6 °F 92% 29.67 in 10.0 mi SSE 4.6 mph - N/A   Clear
10:58 PM 21.6 °F - 21.0 °F 98% 29.69 in 10.0 mi SE 2.3 mph - N/A   Clear
11:58 PM 21.6 °F - 21.0 °F 98% 29.69 in 10.0 mi Calm Calm - N/A   Clear